[[{"header":{"parameterUnit":"m.s-1","parameterCategory":1,"la1":30.2991,"la2":30.254,"lo1":-89.0895,"lo2":-89.0444,"dy":0.0017,"dx":0.0017,"nx":28,"ny":28,"refTime":"2025-11-27T03:00:00:Z","depth":0,"parameterNumber":2,"parameterNumberName":"U-component_of_WINDS"},"data":[0,0,0,0,0,0,0,0,0,0,0,0,0,0,0,0,0,0,0,0,0,0,0,0,0,0,0,0,0,0,0,0,0,0,0,0,0,0,0,0,0,0,0,0,0,0,0,0,0,0,0,0,0,0,0,0,0,0,-2.1078,-2.1079,0,-2.1123,-2.1123,-2.1124,-2.1044,-2.1042,-2.1039,-2.1036,-2.1083,-2.1087,-2.109,0,0,0,0,0,0,0,0,0,0,0,0,0,-2.0924,-2.0927,-2.1078,-2.1079,-2.1079,-2.1123,-2.1123,-2.1124,-2.1045,-2.1041,-2.1038,-2.1035,-2.1082,-2.1086,-2.1091,0,0,0,0,0,0,0,0,0,0,0,0,0,-2.0982,-2.0928,-2.1078,-2.1045,-2.1042,-2.1123,-2.1123,-2.1124,-2.1045,-2.1041,-2.1037,-2.1034,-2.108,-2.1086,-2.1091,-2.1206,0,0,-2.1108,-2.1111,0,0,0,0,0,0,0,0,-2.0979,-2.0988,-2.1049,-2.1047,-2.1045,-2.1074,-2.1086,-2.1152,-2.1046,-2.1044,-2.1036,-2.1032,-2.1083,-2.1088,-2.1106,-2.1208,-2.121,-2.1109,-2.1112,-2.1115,-2.1116,0,0,0,0,0,0,0,-2.0975,-2.0985,-2.1096,-2.105,-2.1047,-2.1028,-2.1031,-2.1098,-2.1086,-2.1044,-2.1039,-2.1045,-2.1081,-2.11,-2.1106,-2.1211,-2.1109,-2.1114,-2.1117,-2.1119,-2.1409,-2.1413,0,0,0,0,0,0,-2.0975,-2.0982,-2.1094,-2.1097,-2.1001,-2.1034,-2.1038,-2.1069,-2.1085,-2.1083,-2.1048,-2.1041,-2.1093,-2.11,-2.1107,-2.1243,-2.1115,-2.112,-2.1123,-2.1405,-2.141,-2.1415,0,0,0,0,0,0,-2.0972,-2.0986,-2.1093,-2.1038,-2.105,-2.1041,-2.1076,-2.1072,-2.1091,-2.1088,-2.1085,-2.107,-2.109,-2.11,-2.1182,-2.1244,-2.1123,-2.1128,-2.14,-2.1406,-2.1412,-2.1515,0,0,0,0,0,0,-2.0968,-2.0985,-2.1029,-2.104,-2.1054,-2.1167,-2.1079,-2.1075,-2.11,-2.1091,-2.1108,-2.1107,-2.1088,-2.1174,-2.1188,-2.1249,-2.1132,-2.1394,-2.1403,-2.141,-2.1506,-2.1525,-2.154,0,0,0,0,0,-2.0963,-2.1057,-2.1032,-2.1046,-2.1108,-2.1171,-2.1179,-2.1155,-2.1106,-2.115,-2.1147,-2.1106,-2.1234,-2.1183,-2.1198,-2.1262,-2.139,-2.14,-2.141,-2.1499,-2.1521,-2.154,0,0,0,0,0,0,-2.1054,-2.1058,-2.103,-2.113,-2.1151,-2.1157,-2.1212,-2.1179,-2.1214,-2.1204,-2.1172,-2.1177,-2.1266,-2.1271,-2.1215,-2.1373,-2.1304,-2.1317,-2.1367,-2.1388,-2.1404,-2.1402,-2.1137,0,0,0,0,0,-2.1086,-2.1136,-2.1136,-2.1225,-2.1236,-2.1223,-2.1249,-2.1228,-2.1248,-2.1257,-2.1261,-2.1282,-2.1326,-2.1357,-2.1398,-2.1506,-2.1508,-2.1557,-2.1574,-2.1587,-2.16,-2.1657,-2.1679,-2.1447,-2.1447,-2.1446,0,0,-2.1152,-2.116,-2.1194,-2.1243,-2.1257,-2.131,-2.1231,-2.129,-2.1329,-2.1266,-2.1344,-2.1347,-2.1369,-2.1464,-2.1507,-2.1472,-2.1664,-2.16,-2.1611,-2.1616,-2.1669,-2.1691,-2.1711,-2.1453,-2.1452,-2.1451,0,0,-2.1301,-2.1312,-2.1387,-2.1401,-2.1422,-2.1412,-2.143,-2.1441,-2.1441,-2.1518,-2.1472,-2.1517,-2.1595,-2.1612,-2.1631,-2.1783,-2.1746,-2.1797,-2.1886,-2.1942,-2.196,-2.1976,-2.2031,-2.2051,-2.1809,-2.1809,-2.1809,0,-2.1381,-2.1459,-2.1429,-2.1492,-2.1515,-2.1459,-2.1534,-2.155,-2.1583,-2.16,-2.156,-2.1656,-2.1666,-2.1765,-2.1802,-2.1819,-2.1838,-2.1796,-2.196,-2.1975,-2.199,-2.2042,-2.2063,-2.1815,-2.1815,-2.1814,-2.1813,0,-2.1557,-2.1612,-2.1669,-2.1703,-2.1731,-2.18,-2.1781,-2.1813,-2.1789,-2.1783,-2.1862,-2.1872,-2.1914,-2.1935,-2.1913,-2.2031,-2.2008,-2.1965,-2.1895,-2.2019,-2.2067,-2.2087,-2.1824,-2.1822,-2.182,-2.1819,0,0,-2.1768,-2.1782,-2.1804,-2.1818,-2.1835,-2.1877,-2.1942,-2.1982,-2.2011,-2.2035,-2.209,-2.2156,-2.2115,-2.2136,-2.2114,-2.2163,-2.2284,-2.2113,-2.2113,-2.2146,-2.2414,-2.2448,-2.2472,-2.2258,-2.2262,-2.2265,-2.2413,0,-2.1916,-2.2029,-2.2003,-2.2115,-2.2165,-2.2111,-2.2167,-2.2184,-2.218,-2.2221,-2.2215,-2.2263,-2.2205,-2.2217,-2.2263,-2.226,-2.2337,-2.2248,-2.2309,-2.2312,-2.2308,-2.2497,-2.2534,-2.2673,-2.2431,-2.2434,-2.2437,0,-2.2105,-2.2136,-2.2253,-2.2261,-2.2281,-2.2333,-2.2367,-2.2407,-2.2424,-2.2417,-2.244,-2.2408,-2.2472,-2.24,-2.2488,-2.2427,-2.245,-2.2452,-2.2457,-2.2463,-2.2383,-2.251,-2.2717,-2.2739,-2.2466,-2.2464,-2.2462,0,-2.2249,-2.2319,-2.2397,-2.2411,-2.2422,-2.246,-2.2466,-2.248,-2.2505,-2.2534,-2.255,-2.2587,-2.2608,-2.2636,-2.2615,-2.2564,-2.2707,-2.2632,-2.2703,-2.2704,-2.2738,-2.2736,-2.2953,-2.275,-2.2749,-2.2749,-2.2748,0,-2.2419,-2.2492,-2.2462,-2.2511,-2.2591,-2.256,-2.264,-2.264,-2.2652,-2.2699,-2.2654,-2.2699,-2.2667,-2.271,-2.2693,-2.2769,-2.2778,-2.2774,-2.2769,-2.2779,-2.278,-2.2796,-2.2786,-2.2754,-2.2753,-2.2752,-2.2751,0,-2.2594,-2.2576,-2.2659,-2.2662,-2.2664,-2.2724,-2.2726,-2.2771,-2.2761,-2.2822,-2.2834,-2.282,-2.2867,-2.2848,-2.2898,-2.2887,-2.2984,-2.2965,-2.2979,-2.2974,-2.3047,-2.3041,-2.3282,-2.3312,-2.3088,-2.3091,-2.3092,0,-2.2704,-2.276,-2.2768,-2.2797,-2.2806,-2.2852,-2.2877,-2.2847,-2.2876,-2.2898,-2.294,-2.2983,-2.3017,-2.3095,-2.3089,-2.3127,-2.311,-2.3192,-2.3115,-2.3124,-2.3112,-2.311,-2.3116,-2.3208,-2.321,-2.3213,-2.3214,0,-2.2903,-2.2891,-2.2929,-2.2964,-2.2995,-2.3021,-2.3043,-2.3069,-2.304,-2.3073,-2.3121,-2.3147,-2.3197,-2.3241,-2.3274,-2.328,-2.3243,-2.3238,-2.3256,-2.3268,-2.3274,-2.3273,-2.3022,-2.3233,-2.3231,-2.323,-2.3229,-2.3228,-2.305,-2.3096,-2.3109,-2.3153,-2.3166,-2.3187,-2.3229,-2.3224,-2.3263,-2.3302,-2.3281,-2.3337,-2.3351,-2.3391,-2.3402,-2.3445,-2.3413,-2.344,-2.3447,-2.3454,-2.3464,-2.3266,-2.3451,-2.345,-2.3449,-2.3449,-2.3449,0,-2.3247,-2.3252,-2.3292,-2.3324,-2.3358,-2.3318,-2.334,-2.3371,-2.3421,-2.3437,-2.347,-2.3524,-2.3565,-2.3561,-2.3599,-2.3634,-2.3618,-2.3645,-2.3643,-2.3645,-2.349,-2.3471,-2.3657,-2.3657,-2.3657,-2.3657,-2.3657,-2.3657,-2.3354,-2.343,-2.3419,-2.3501,-2.3505,-2.3559,-2.3575,-2.3594,-2.3606,-2.3669,-2.3703,-2.3699,-2.3707,-2.3745,-2.3781,-2.3778,-2.3795,-2.3829,-2.3821,-2.3677,-2.3656,-2.3636,-2.3618,-2.3833,-2.3833,-2.3972,-2.3973,-2.3974]},{"header":{"parameterUnit":"m.s-1","parameterCategory":1,"la1":30.2991,"la2":30.254,"lo1":-89.0895,"lo2":-89.0444,"dy":0.0017,"dx":0.0017,"nx":28,"ny":28,"refTime":"2025-11-27T03:00:00:Z","depth":0,"parameterNumber":3,"parameterNumberName":"V-component_of_WINDS"},"data":[0,0,0,0,0,0,0,0,0,0,0,0,0,0,0,0,0,0,0,0,0,0,0,0,0,0,0,0,0,0,0,0,0,0,0,0,0,0,0,0,0,0,0,0,0,0,0,0,0,0,0,0,0,0,0,0,0,0,-7.2547,-7.2548,0,-7.2705,-7.2707,-7.2708,-7.2609,-7.2604,-7.2599,-7.2595,-7.275,-7.2759,-7.2767,0,0,0,0,0,0,0,0,0,0,0,0,0,-7.2151,-7.2158,-7.2547,-7.2549,-7.2551,-7.2705,-7.2707,-7.2709,-7.261,-7.2604,-7.2598,-7.2593,-7.2748,-7.2758,-7.2768,0,0,0,0,0,0,0,0,0,0,0,0,0,-7.2317,-7.2161,-7.2546,-7.252,-7.2519,-7.2704,-7.2707,-7.2709,-7.2611,-7.2604,-7.2597,-7.259,-7.2744,-7.2757,-7.2769,-7.2987,0,0,-7.2808,-7.2813,0,0,0,0,0,0,0,0,-7.2308,-7.2332,-7.2522,-7.2522,-7.2521,-7.263,-7.2624,-7.2802,-7.2612,-7.2576,-7.2595,-7.2587,-7.2716,-7.273,-7.2775,-7.2995,-7.3001,-7.2809,-7.2817,-7.2822,-7.2826,0,0,0,0,0,0,0,-7.2296,-7.2324,-7.2609,-7.2524,-7.2524,-7.2497,-7.2513,-7.2657,-7.2683,-7.2578,-7.2572,-7.2592,-7.2714,-7.2763,-7.2778,-7.3003,-7.2809,-7.282,-7.2828,-7.2833,-7.3408,-7.3415,0,0,0,0,0,0,-7.2288,-7.2315,-7.2604,-7.2614,-7.2395,-7.251,-7.2528,-7.2602,-7.2681,-7.2686,-7.2598,-7.2587,-7.2745,-7.2763,-7.2783,-7.3043,-7.2822,-7.2834,-7.2841,-7.3401,-7.341,-7.3418,0,0,0,0,0,0,-7.228,-7.2315,-7.2597,-7.2463,-7.2497,-7.2524,-7.2608,-7.2609,-7.2658,-7.2696,-7.2699,-7.2644,-7.274,-7.2765,-7.2937,-7.3047,-7.284,-7.2851,-7.3392,-7.3403,-7.3414,-7.3566,0,0,0,0,0,0,-7.2269,-7.2312,-7.2398,-7.2466,-7.2504,-7.2752,-7.2615,-7.2617,-7.2681,-7.2668,-7.274,-7.2745,-7.2736,-7.2919,-7.295,-7.3061,-7.2861,-7.3382,-7.3397,-7.341,-7.3551,-7.3581,-7.3607,0,0,0,0,0,-7.2255,-7.2433,-7.2402,-7.2438,-7.2612,-7.2759,-7.2781,-7.277,-7.269,-7.2775,-7.2799,-7.2742,-7.303,-7.2937,-7.2972,-7.3088,-7.3375,-7.3393,-7.3409,-7.3539,-7.3575,-7.3606,0,0,0,0,0,0,-7.2375,-7.2441,-7.2408,-7.2614,-7.2682,-7.2742,-7.2848,-7.2809,-7.2899,-7.2883,-7.2863,-7.288,-7.306,-7.309,-7.2986,-7.3302,-7.3189,-7.3214,-7.3276,-7.3311,-7.3338,-7.3327,-7.2872,0,0,0,0,0,-7.2425,-7.2542,-7.2592,-7.2768,-7.2804,-7.2821,-7.2884,-7.287,-7.2939,-7.2966,-7.3003,-7.3069,-7.3174,-7.3244,-7.3343,-7.3554,-7.3568,-7.3651,-7.3679,-7.3701,-7.3723,-7.3836,-7.3873,-7.3475,-7.3475,-7.3474,0,0,-7.253,-7.2581,-7.2655,-7.2794,-7.2845,-7.2963,-7.2846,-7.2976,-7.3063,-7.2985,-7.3151,-7.318,-7.3253,-7.3446,-7.3532,-7.3477,-7.3836,-7.3723,-7.3741,-7.3751,-7.3858,-7.3895,-7.3929,-7.3486,-7.3484,-7.3482,0,0,-7.2783,-7.2833,-7.2986,-7.3039,-7.3119,-7.3128,-7.3165,-7.3231,-7.3248,-7.3415,-7.3358,-7.346,-7.3642,-7.3696,-7.3747,-7.4019,-7.397,-7.4052,-7.4197,-7.4307,-7.4339,-7.4366,-7.4463,-7.4498,-7.4073,-7.4073,-7.4074,0,-7.2903,-7.3082,-7.3068,-7.3204,-7.3265,-7.3202,-7.3354,-7.3406,-7.3513,-7.3556,-7.3493,-7.3719,-7.3764,-7.3968,-7.4035,-7.4078,-7.4118,-7.4044,-7.4336,-7.4363,-7.4389,-7.4481,-7.4517,-7.4083,-7.4082,-7.4081,-7.408,0,-7.3225,-7.335,-7.3463,-7.357,-7.3644,-7.3787,-7.3793,-7.3869,-7.3848,-7.3863,-7.4032,-7.4083,-7.4191,-7.4238,-7.4218,-7.444,-7.4403,-7.4338,-7.4225,-7.4437,-7.4522,-7.4558,-7.4096,-7.4093,-7.409,-7.4088,0,0,-7.3558,-7.3656,-7.3698,-7.3745,-7.3828,-7.3923,-7.4061,-7.4169,-7.4235,-7.431,-7.4425,-7.458,-7.452,-7.4579,-7.4563,-7.466,-7.4872,-7.4583,-7.4585,-7.4635,-7.5118,-7.5167,-7.5208,-7.4839,-7.4846,-7.4851,-7.5112,0,-7.3815,-7.4062,-7.4053,-7.4281,-7.4395,-7.4336,-7.4457,-7.4519,-7.4537,-7.4634,-7.4652,-7.4763,-7.4676,-7.4711,-7.4804,-7.4827,-7.4968,-7.4807,-7.4945,-7.495,-7.4929,-7.5253,-7.5305,-7.5548,-7.5145,-7.5151,-7.5155,0,-7.4149,-7.4238,-7.4479,-7.4544,-7.4591,-7.4701,-7.4798,-7.4892,-7.496,-7.4966,-7.5032,-7.5001,-7.5139,-7.5021,-7.521,-7.5101,-7.5156,-7.5175,-7.5184,-7.5197,-7.5066,-7.5274,-7.5626,-7.5662,-7.5208,-7.5204,-7.52,0,-7.4368,-7.4547,-7.4715,-7.4757,-7.4837,-7.4915,-7.4951,-7.5013,-7.5078,-7.5162,-7.5203,-7.5302,-7.5355,-7.5431,-7.5426,-7.5341,-7.5618,-7.55,-7.5625,-7.5625,-7.5686,-7.5683,-7.6052,-7.5722,-7.5721,-7.5721,-7.572,0,-7.4657,-7.4806,-7.4814,-7.4917,-7.5082,-7.5069,-7.5231,-7.5259,-7.5314,-7.542,-7.5373,-7.5472,-7.546,-7.5559,-7.5555,-7.5712,-7.5736,-7.5743,-7.5741,-7.5748,-7.5747,-7.5784,-7.5767,-7.573,-7.5728,-7.5726,-7.5725,0,-7.493,-7.4941,-7.5119,-7.5181,-7.5199,-7.5318,-7.5369,-7.5466,-7.5479,-7.5613,-7.5643,-7.5663,-7.5777,-7.578,-7.591,-7.5907,-7.6099,-7.6077,-7.6077,-7.6073,-7.6198,-7.6186,-7.6604,-7.6658,-7.6293,-7.6296,-7.6299,0,-7.5114,-7.5228,-7.5302,-7.537,-7.5412,-7.5522,-7.5589,-7.5579,-7.565,-7.5736,-7.5821,-7.5931,-7.6019,-7.6203,-7.6228,-7.6327,-7.6307,-7.6446,-7.6321,-7.6325,-7.6309,-7.6303,-7.6313,-7.6471,-7.6475,-7.6478,-7.6481,0,-7.5439,-7.5438,-7.5538,-7.5639,-7.5721,-7.5799,-7.5872,-7.593,-7.5928,-7.6009,-7.6127,-7.6195,-7.6328,-7.6437,-7.6533,-7.6567,-7.6524,-7.652,-7.6554,-7.6564,-7.6559,-7.6563,-7.6144,-7.6511,-7.6508,-7.6506,-7.6504,-7.6503,-7.5673,-7.5771,-7.5839,-7.595,-7.6004,-7.6073,-7.6167,-7.6192,-7.6291,-7.6401,-7.6388,-7.6518,-7.6581,-7.6705,-7.6748,-7.6848,-7.6799,-7.6849,-7.6861,-7.6874,-7.6887,-7.6543,-7.6865,-7.6864,-7.6863,-7.6862,-7.6862,0,-7.5995,-7.6036,-7.6139,-7.6243,-7.633,-7.6284,-7.6361,-7.6437,-7.6553,-7.6617,-7.6704,-7.6838,-7.6944,-7.6977,-7.7078,-7.7152,-7.7135,-7.7179,-7.7173,-7.7182,-7.6925,-7.6886,-7.7191,-7.7191,-7.7191,-7.7191,-7.7191,-7.7191,-7.6173,-7.6337,-7.6345,-7.6534,-7.6573,-7.6702,-7.6751,-7.6813,-7.6864,-7.7017,-7.7105,-7.7126,-7.7177,-7.7282,-7.7376,-7.7382,-7.7422,-7.7475,-7.7473,-7.7233,-7.72,-7.7168,-7.7131,-7.7483,-7.7484,-7.7722,-7.7724,-7.7726]}]]